Volver al catálogo

LEMUR-2-NURAY

ActivoComunicacionesSSO
NORAD 69932·PAYLOAD·🇺🇸 United States

Lanzado Jul 7, 2026 desde Vandenberg Space Force Base

Loading…

Próximos Pases (próximas 24 horas)

TLE

ActualizadoSource: Space-Track

Época: Sep 14, 2026, 16:03 UTC

1 69932U 26156BR  26257.66893815  .00001464  00000-0  14811-3 0  9990
2 69932  97.7390 156.9741 0007991 284.0212  76.0118 14.92486632 10340

Sigue LEMUR-2-NURAY en tiempo real con AllMySat

Download on the App Store